Temp
26 26 26 26 27 27 27 27 27 27 27 27 27 27 27 27 27 27 27 26 26 26 26 26 26 26 26 26 26 26 26 25 25 24 24 24 24 24 25 25 25 25
26 26 26 26 27 27 27 27 27 27 27 27 27 27 27 27 27 27 27 27 26 26 26 26 26 26 26 26 26 26 26 25 25 25 24 24 24 24 25 25 25 25
26 26 26 26 27 27 27 27 27 27 27 27 27 27 27 27 27 27 27 27 27 26 26 26 26 26 26 26 25 25 25 25 25 25 25 24 24 25 25 25 25 25
26 26 26 26 27 27 27 27 27 27 27 27 27 28 28 28 27 27 27 27 27 27 26 26 26 26 26 25 25 25 25 25 25 25 25 25 24 25 25 25 25 25
26 26 27 27 27 27 27 27 28 27 27 27 27 27 28 28 28 27 27 27 27 27 26 26 26 26 26 25 26 25 25 25 25 25 25 25 24 25 25 25 25 25
26 27 27 27 27 27 27 27 28 28 28 28 28 27 28 28 28 28 27 27 27 27 27 26 26 26 26 25 25 25 25 25 25 25 25 25 25 24 25 25 25 25
27 27 27 27 27 27 28 28 28 28 28 28 28 28 28 28 28 28 28 27 27 27 27 27 26 26 26 26 25 25 25 25 25 25 25 25 25 25 25 25 25 25
27 27 27 27 27 28 28 28 28 28 28 28 28 28 28 28 28 28 28 28 27 27 27 27 27 26 26 26 26 26 25 25 26 25 25 25 25 25 25 25 25 25
27 27 27 27 27 28 28 28 28 28 28 28 28 28 28 28 28 28 28 28 28 27 27 27 27 27 26 26 26 26 26 25 26 26 25 25 25 25 25 25 25 25
28 28 27 27 28 28 28 28 28 28 28 28 28 28 28 28 28 28 28 28 28 27 27 27 27 27 27 26 26 26 26 26 26 26 26 25 25 25 25 25 25 25
28 28 28 28 28 28 28 28 29 29 28 28 28 29 28 28 28 28 28 28 28 28 27 27 27 27 27 27 26 26 26 26 26 26 26 26 25 25 25 25 25 25
28 28 28 28 28 28 29 29 29 29 29 28 28 28 29 29 28 28 28 28 27 27 27 27 27 27 27 27 27 26 26 26 26 26 26 26 26 25 25 25 25 25
29 29 29 29 28 29 29 29 30 30 30 29 28 28 29 29 29 28 28 28 27 27 27 27 27 27 27 27 27 27 26 26 26 26 26 26 26 26 26 25 25 25
29 29 29 29 29 29 29 30 30 30 30 30 29 29 29 29 29 29 28 28 28 27 27 27 27 27 27 27 27 27 27 26 26 26 26 26 26 26 26 26 26 25
29 29 29 29 29 29 29 30 30 30 30 30 30 29 29 29 30 29 29 28 28 27 27 27 27 27 27 27 27 27 27 27 26 26 26 26 26 26 26 26 26 26
30 29 29 29 30 29 29 30 30 30 30 31 31 30 30 29 30 30 30 29 28 28 27 27 27 27 27 27 27 27 27 27 27 26 26 26 26 26 26 26 26 26
30 29 29 29 30 30 29 30 30 30 30 31 31 31 30 30 30 30 30 30 29 28 27 27 27 27 27 27 27 27 27 27 27 27 26 26 26 26 26 26 26 26
30 29 29 29 29 30 29 29 30 30 30 31 31 31 31 30 30 30 30 30 30 28 28 27 27 27 27 27 27 27 27 27 27 27 27 26 26 27 26 26 26 26
30 30 29 29 29 29 29 30 30 30 30 30 30 31 30 30 30 30 30 30 30 29 28 28 28 28 27 27 27 27 27 27 27 27 27 27 27 27 27 27 27 27
30 30 29 29 29 29 29 29 29 29 30 30 30 30 30 30 30 30 30 30 30 30 29 29 28 28 28 27 27 27 27 27 27 27 27 27 27 27 27 27 27 27
30 30 29 29 29 29 29 29 29 29 29 30 30 30 30 30 30 30 30 30 30 30 30 29 29 29 28 28 27 28 27 27 27 27 27 27 27 27 27 27 27 27
30 30 29 29 29 29 29 29 29 29 29 29 30 30 30 30 30 30 30 30 29 29 30 30 30 29 29 28 28 28 27 27 27 27 27 27 27 27 27 27 27 27
30 29 29 29 29 29 29 29 29 29 29 29 29 30 30 30 29 30 30 29 29 29 29 29 30 30 30 29 29 28 27 27 27 26 26 27 27 27 27 27 27 27
30 29 29 29 29 29 29 29 29 29 29 29 29 29 30 30 29 29 29 29 29 29 29 29 29 29 30 29 29 29 28 27 27 26 26 26 27 27 27 27 27 27
30 29 29 29 29 29 29 29 29 29 28 28 28 29 29 30 30 29 29 29 29 29 29 29 29 29 29 29 29 29 28 27 27 26 26 26 26 26 26 27 27 27
30 29 29 29 29 29 29 29 29 29 28 28 28 29 29 29 30 30 29 29 29 29 29 29 29 29 29 29 29 29 28 28 27 26 25 26 26 26 26 26 26 26
Height
778 780 783 785 788 790 792 793 796 798 800 801 803 805 806 808 810 812 814 815 817 818 820 822 823 825 826 827 829 830 831 831 832 833 834 835 836 837 838 839 841 842
774 776 779 782 784 787 789 791 793 795 797 799 800 802 804 806 808 809 811 812 814 816 818 819 821 822 824 825 826 827 829 830 831 832 832 833 834 835 836 837 839 840
770 772 775 778 780 783 785 788 790 792 794 796 797 799 801 803 805 807 808 810 811 813 815 817 818 819 821 823 824 825 826 827 828 830 830 831 832 833 834 836 837 838
765 768 770 773 776 779 782 785 787 789 791 792 794 797 798 800 802 804 806 807 809 810 812 814 816 817 818 820 821 823 824 825 826 828 828 829 830 831 832 834 835 836
760 763 766 769 772 775 779 781 783 785 787 789 791 793 795 797 799 800 803 805 806 808 810 812 813 814 816 817 819 820 821 823 824 825 826 827 828 829 830 831 832 833
756 759 762 765 768 771 774 776 778 781 783 786 788 790 792 794 796 797 799 801 804 806 807 809 811 812 813 814 816 817 819 820 821 822 824 824 825 827 828 829 829 830
751 754 758 761 764 767 770 772 775 777 780 783 785 787 789 791 793 794 796 798 800 803 804 806 808 809 811 812 813 814 816 817 818 820 821 822 823 824 825 826 827 828
746 749 753 757 760 763 765 768 771 773 776 779 781 783 785 787 789 791 793 795 797 799 801 803 805 806 808 809 810 811 812 814 816 817 818 819 820 821 822 823 824 825
742 745 749 752 756 758 761 764 766 769 773 775 777 780 782 784 786 788 790 792 794 796 798 799 801 803 804 805 806 807 809 810 812 813 814 815 816 817 818 819 820 821
738 741 744 747 751 753 756 759 762 765 768 771 774 776 778 780 783 785 787 789 790 792 794 796 797 799 801 802 803 804 805 806 808 810 811 812 813 814 815 816 817 818
735 738 740 743 746 749 752 755 759 761 764 767 770 773 775 777 779 781 783 785 786 788 790 791 793 795 796 798 799 800 801 803 804 806 807 808 809 810 811 812 813 814
731 734 737 740 743 746 749 752 755 758 760 763 765 768 771 773 775 777 779 781 782 784 786 787 789 791 793 794 796 797 799 800 801 803 804 805 806 807 808 809 810 812
726 730 733 736 739 742 745 748 751 754 756 758 761 764 767 769 770 772 774 777 778 780 782 784 786 788 790 791 793 794 796 797 798 800 800 801 803 804 806 807 808 809
721 725 728 731 734 737 741 744 747 750 752 755 757 760 762 764 766 768 770 772 774 776 778 781 783 784 786 788 789 791 793 794 795 796 797 798 799 800 802 804 805 806
717 720 723 727 730 733 736 739 742 746 748 751 753 755 758 761 762 764 766 768 770 772 775 777 779 780 781 783 785 787 789 790 791 792 793 794 795 796 798 799 801 802
713 716 719 723 726 728 732 735 739 742 745 747 749 751 754 756 759 761 762 764 766 768 771 773 774 775 776 778 780 782 784 785 786 788 789 790 791 792 794 795 796 798
709 712 715 718 721 724 728 731 735 738 740 743 745 747 750 752 755 757 759 760 762 764 766 767 768 769 770 772 774 776 778 780 781 783 784 786 787 788 789 790 792 793
706 708 711 714 717 720 723 726 730 733 736 738 740 742 745 748 750 752 754 756 758 759 761 762 762 764 765 767 769 770 772 774 776 778 780 781 782 783 784 785 786 787
703 705 708 710 713 716 720 723 726 728 730 733 735 738 741 743 745 747 749 752 754 755 756 757 758 760 761 762 764 765 767 769 771 773 774 775 776 777 779 779 780 781
699 702 705 708 710 714 716 719 721 723 725 729 732 735 737 738 740 742 745 748 749 751 752 752 754 755 757 758 759 761 763 765 767 768 769 770 771 772 772 773 774 775
695 699 702 705 708 711 713 715 717 719 722 726 728 731 732 733 736 739 741 743 745 747 748 748 750 751 752 754 755 757 759 761 763 764 765 765 766 766 767 768 769 771
692 696 699 702 705 707 709 711 714 716 720 722 725 727 729 731 733 735 737 739 741 743 744 745 746 747 748 749 750 753 755 757 758 760 761 761 761 762 762 763 765 766
689 692 696 699 702 704 705 708 710 714 717 719 722 724 726 728 730 731 733 735 737 738 739 740 742 743 744 744 746 748 751 752 753 755 757 757 756 757 758 759 760 761
686 690 693 696 698 700 702 705 708 711 714 716 719 721 722 725 726 728 730 731 732 734 735 736 737 739 740 741 742 743 745 746 748 751 752 751 751 753 755 756 756 756
684 687 691 693 695 697 699 701 704 707 710 713 715 717 719 721 723 724 725 727 728 730 731 732 734 735 736 737 737 739 741 742 745 747 747 746 747 750 751 752 753 752
682 685 688 690 693 695 696 699 701 704 707 709 712 714 716 718 719 720 721 723 725 727 728 729 730 731 732 732 733 736 737 739 742 742 742 743 745 748 749 749 749 749
Wind_Speed
33 33 32 30 29 27 26 25 25 25 25 24 25 25 25 24 24 24 24 25 25 24 23 22 21 21 19 18 18 17 17 17 18 19 19 19 18 16 15 14 13 12
34 33 33 31 30 29 28 27 25 25 26 26 25 25 25 25 24 24 25 25 25 25 24 23 23 23 22 20 20 20 19 18 18 19 20 20 19 18 17 15 15 15
36 34 34 32 31 31 30 29 27 26 26 26 26 24 24 25 25 25 25 25 26 25 24 24 24 24 24 22 21 21 21 21 21 20 20 21 20 19 18 16 16 16
38 36 35 34 32 32 31 30 29 28 27 26 27 26 24 23 24 26 26 26 26 25 25 25 25 24 25 24 22 22 22 22 23 21 21 22 22 20 19 18 17 17
40 38 37 35 33 32 31 31 31 30 29 27 26 26 26 24 24 25 27 27 27 26 25 26 26 25 26 25 24 24 23 22 23 23 22 23 23 22 20 19 19 19
41 39 38 36 34 33 32 33 33 31 30 29 27 26 27 27 25 25 26 27 27 27 26 26 26 26 26 26 26 25 24 22 23 24 24 24 24 23 22 21 21 21
40 40 39 37 35 34 34 34 34 32 31 29 28 27 27 27 28 27 26 27 27 27 27 26 27 27 27 27 27 27 26 24 23 24 25 25 24 24 23 22 23 23
40 41 40 37 35 35 35 34 33 33 32 30 29 29 28 28 29 29 28 27 27 28 28 28 28 28 28 28 28 28 28 26 24 25 26 26 25 26 25 24 24 25
40 40 39 38 36 35 35 34 33 33 33 31 29 29 29 29 28 29 29 29 28 29 29 29 29 30 29 29 29 30 29 28 26 26 27 28 27 27 27 26 25 26
39 37 37 37 36 34 34 34 32 32 33 33 31 28 29 30 29 29 29 30 30 29 30 30 30 31 31 31 31 31 31 30 28 27 28 29 29 29 29 29 28 27
37 35 35 36 35 34 33 34 32 31 31 33 33 31 29 30 31 30 29 31 32 31 31 32 32 32 32 32 31 32 32 31 30 29 29 29 30 30 30 30 30 29
36 35 34 35 35 33 32 33 32 31 30 31 33 33 31 30 30 32 31 31 32 33 32 32 33 32 33 33 32 31 31 31 30 30 30 30 30 30 30 30 30 30
36 37 36 35 36 35 33 32 33 32 31 30 31 32 32 31 30 31 32 32 33 33 33 33 33 33 33 33 32 31 31 30 29 29 30 30 31 30 30 30 30 30
37 37 38 37 37 37 35 33 33 33 32 32 31 31 31 31 31 31 32 33 33 34 34 33 33 33 33 33 33 32 30 30 30 29 30 30 30 30 30 30 30 30
36 36 38 38 37 37 38 36 34 34 34 33 32 31 30 31 31 30 31 32 32 33 33 33 33 34 35 34 34 34 32 31 31 31 31 30 30 30 30 30 30 29
36 35 35 37 37 37 38 37 35 33 33 34 33 33 31 31 31 30 30 31 32 32 32 33 34 35 37 38 37 37 35 34 32 32 32 31 30 30 30 31 31 30
35 35 34 35 37 36 36 37 36 35 34 34 34 34 32 32 31 31 31 30 30 32 33 34 36 36 38 40 41 40 39 37 35 33 33 33 32 31 31 31 31 32
33 34 34 35 36 36 36 37 37 36 35 34 35 35 34 32 31 32 33 31 30 31 33 34 36 37 39 41 42 43 42 40 37 35 34 34 34 33 33 32 32 33
32 33 34 34 35 36 35 35 36 37 36 35 35 35 34 33 33 33 34 33 32 31 32 34 34 36 38 41 43 44 45 43 39 36 35 35 35 35 35 35 35 34
32 32 32 32 32 33 34 34 35 37 37 35 33 33 34 34 35 34 33 34 34 32 32 33 34 34 37 40 43 44 45 45 42 38 36 36 36 37 37 37 37 36
32 31 31 30 31 32 32 33 34 34 34 33 31 32 34 35 35 34 33 34 35 35 33 32 32 33 35 39 42 43 44 46 45 41 36 35 35 36 37 38 38 38
31 30 29 30 30 31 31 32 32 32 32 33 31 30 31 32 33 33 33 33 34 35 34 33 32 33 35 38 40 42 43 45 47 44 39 36 35 35 36 37 37 37
30 29 29 29 30 30 31 31 31 30 30 31 31 28 27 29 30 31 32 32 32 33 34 35 34 33 34 36 38 40 43 45 48 46 42 39 38 36 34 35 35 37
29 29 29 30 30 30 30 30 29 29 29 30 30 29 27 26 27 29 30 31 32 32 33 34 34 33 34 35 36 38 42 45 47 46 42 41 41 38 35 33 34 36
29 29 30 30 30 30 29 29 29 28 28 28 29 30 28 26 25 26 28 30 31 31 32 33 33 33 34 36 37 37 39 44 46 44 41 40 38 36 34 34 34 35
28 29 29 29 29 29 28 28 28 27 26 27 27 28 28 27 26 26 26 27 28 29 30 32 32 32 32 35 37 36 37 41 42 41 39 37 35 32 31 32 34 35
Wind_Direction
195 196 197 200 201 201 201 198 197 199 200 200 200 202 202 202 201 199 202 206 208 207 207 208 209 210 211 210 208 206 202 200 201 201 200 200 202 202 203 204 206 219
195 197 198 200 202 203 203 201 199 199 201 202 202 203 205 205 202 201 202 205 207 209 208 207 209 209 209 209 209 208 205 203 202 204 204 202 202 204 205 205 206 212
196 197 198 199 202 203 203 203 203 203 203 204 205 205 205 205 204 203 203 204 206 208 208 207 208 209 208 207 209 209 207 206 204 204 207 206 204 206 207 208 209 211
197 198 199 200 202 203 203 203 205 206 205 206 207 207 206 204 205 205 204 205 205 206 207 207 206 207 208 207 207 209 209 210 208 205 208 209 207 207 208 208 211 213
199 200 201 201 202 202 202 204 206 206 207 208 207 207 208 206 204 204 205 206 206 205 206 207 207 207 207 206 206 208 209 210 210 207 207 210 210 208 208 208 210 214
199 201 201 202 202 202 202 205 207 207 208 209 208 207 208 207 205 203 203 205 205 206 206 207 207 207 208 207 206 207 209 209 210 209 207 209 210 209 209 210 211 212
199 201 202 202 202 202 203 205 207 208 208 208 208 208 207 208 208 205 203 203 204 205 206 206 207 207 207 208 207 208 210 210 210 210 209 209 209 210 210 210 212 213
198 200 201 202 202 203 205 206 206 207 208 207 207 208 208 208 208 208 205 204 204 205 206 206 207 208 207 207 208 210 210 211 211 211 211 210 209 210 211 211 212 214
198 199 200 200 201 202 204 205 205 207 208 207 207 208 208 208 208 208 207 206 205 206 206 207 208 209 208 208 209 211 211 212 212 213 212 211 211 211 211 211 211 212
198 197 197 197 198 199 202 203 204 206 207 207 207 208 208 209 209 208 208 207 207 207 207 208 208 209 209 209 210 212 213 213 213 214 215 214 214 214 213 213 211 212
197 195 194 195 197 199 200 202 202 203 206 207 208 208 208 208 209 208 208 208 207 207 208 209 209 210 210 210 212 213 214 215 214 215 216 216 217 217 216 215 214 214
197 197 196 197 199 200 201 202 203 203 204 204 206 208 209 209 208 208 208 209 209 209 209 210 210 210 210 211 212 214 215 216 216 217 218 219 219 220 219 218 217 217
198 199 200 200 201 203 203 204 205 205 204 203 204 206 208 209 207 207 208 210 210 210 210 211 211 211 212 212 213 214 215 216 217 218 220 220 221 221 222 221 220 219
199 200 201 202 204 205 205 206 206 206 206 205 204 205 207 209 207 205 206 208 210 211 211 211 211 211 212 213 213 215 216 216 217 219 220 221 222 222 222 222 222 221
199 201 202 204 204 204 205 206 207 208 208 207 206 205 207 210 211 208 206 206 209 211 211 211 212 212 213 213 213 214 216 217 218 219 220 221 221 221 221 222 222 221
198 201 202 203 204 204 205 206 207 208 209 209 209 208 207 209 212 213 210 207 207 208 210 211 213 214 215 215 214 214 216 218 219 219 220 221 221 221 220 221 222 222
198 200 201 202 204 204 204 205 206 207 209 210 210 210 209 208 210 213 214 212 207 206 209 212 214 216 217 216 216 217 217 217 218 219 220 221 222 221 221 221 222 223
198 199 200 201 203 203 204 204 205 207 208 209 209 209 209 209 208 210 214 215 211 206 208 213 217 218 218 218 218 219 219 218 218 219 219 221 222 222 222 222 222 223
199 199 200 201 201 202 203 203 203 205 207 208 209 208 209 209 210 211 212 215 215 211 209 213 218 220 219 219 220 221 222 220 219 219 220 221 222 223 223 223 223 223
199 200 201 202 201 200 201 201 202 205 207 208 208 208 208 210 211 212 212 213 216 217 215 215 218 220 221 221 222 223 224 223 221 221 222 223 224 224 224 224 224 223
198 200 201 202 201 200 200 201 203 205 206 206 207 208 209 211 212 213 213 214 216 219 221 221 220 221 222 223 224 225 225 225 224 223 224 225 226 226 226 226 226 225
196 197 198 201 201 200 201 202 203 204 205 205 207 209 212 213 213 214 215 216 217 219 222 225 225 225 225 225 225 225 225 225 225 225 226 229 230 229 229 228 228 227
195 195 197 199 199 199 201 203 203 203 204 205 206 209 212 212 213 215 216 218 219 220 222 226 228 228 229 229 228 225 224 224 225 224 226 230 232 232 232 231 230 230
194 195 197 199 199 199 201 201 202 203 204 205 205 207 211 212 213 215 217 218 220 221 223 226 228 230 232 234 233 228 223 223 224 224 225 230 233 234 235 235 234 234
193 195 199 200 200 200 198 198 200 201 202 204 205 208 212 214 212 213 215 218 220 222 224 226 228 230 232 234 236 233 227 223 223 223 225 230 233 235 237 238 238 239
195 196 200 202 202 201 199 199 199 199 199 201 203 207 211 213 214 214 214 216 219 222 225 227 228 230 232 234 236 235 232 227 222 222 226 230 233 235 238 240 241 242